Weather History for Madrid, Spain

Change the Weather History Date:

Tuesday, February 28, 2012

  Actual Average Record
Temperature  
Mean Temperature 51 °F -  
Max Temperature 69 °F 60 °F 69 °F (1997)
Min Temperature 33 °F 38 °F 23 °F (2005)
Degree Days  
Heating Degree Days 14    
Growing Degree Days 1 (Base 50)    
Moisture  
Dew Point 31 °F    
Average Humidity 51    
Maximum Humidity 81    
Minimum Humidity 19    
Precipitation  
Precipitation 0.00 in 0.04 in - ()
Sea Level Pressure  
Sea Level Pressure 30.15 in    
Wind  
Wind Speed 3 mph ()    
Max Wind Speed 6 mph    
Max Gust Speed 15 mph    
Visibility 19.0 miles    
Events      
Averages and records for this station are not official NWS values.
T = Trace of Precipitation, MM = Missing Value Source: Averaged Metar Reports

Daily Weather History Graph

Daily Weather History Graph

Search for Another Location

Airport:

Trip Planner

Search our weather history database for the weather conditions in past years. The results will help you decide how hot, cold, wet, or windy it might be!

Date:

Astronomy

Feb. 28, 2012 Rise Set
Actual Time 7:50 AM CET 7:03 PM CET
Civil Twilight 7:23 AM CET 7:31 PM CET
Nautical Twilight 6:51 AM CET 8:02 PM CET
Astronomical Twilight 6:20 AM CET 8:34 PM CET
Moon 10:47 AM CET (2/28) 12:44 AM CET (2/28)
Length of Visible Light 12h 08m
Length of Day
11h 13m
Waxing Crescent, 35% of the Moon is Illuminated
Feb 28
Waxing Crescent
Mar 1
First Quarter
Mar 8
Full
Mar 15
Last Quarter
Mar 22
New

Hourly Weather History & Observations

Time (CET) Temp. Windchill Dew Point Humidity Pressure Visibility Wind Dir Wind Speed Gust Speed Precip Events Conditions
12:00 AM 44.6 °F 42.2 °F 30.2 °F 57% 30.15 in - NNW 4.6 mph - N/A   Clear
12:30 AM 42.8 °F - 30.2 °F 61% 30.15 in - Variable 2.3 mph - N/A   Clear
1:00 AM 41 °F - 28 °F 47% 30.22 in 19 mi SE 3.5 mph - -  
1:00 AM 41.0 °F 39.0 °F 28.4 °F 61% 30.15 in - SE 3.5 mph - N/A   Clear
1:30 AM 39.2 °F - 30.2 °F 70% 30.15 in - Calm Calm - N/A   Clear
2:00 AM 39.2 °F - 30.2 °F 70% 30.15 in - Calm Calm - N/A   Clear
2:30 AM 39.2 °F 37.0 °F 30.2 °F 70% 30.15 in - NNE 3.5 mph - N/A   Clear
3:00 AM 39.2 °F - 28.4 °F 65% 30.15 in - North 2.3 mph - N/A   Clear
3:30 AM 41.0 °F - 30.2 °F 65% 30.15 in - NW 2.3 mph - N/A   Clear
4:00 AM 39.2 °F - 30.2 °F 70% 30.15 in - Variable 1.2 mph - N/A   Clear
4:30 AM 39.2 °F 37.0 °F 30.2 °F 70% 30.15 in - North 3.5 mph - N/A   Clear
5:00 AM 39.2 °F - 30.2 °F 70% 30.15 in - NNW 2.3 mph - N/A   Clear
5:30 AM 37.4 °F 34.9 °F 28.4 °F 70% 30.15 in - North 3.5 mph - N/A   Clear
6:00 AM 35.6 °F - 28.4 °F 75% 30.15 in - NNW 1.2 mph - N/A   Clear
6:30 AM 35.6 °F - 28.4 °F 75% 30.15 in - North 2.3 mph - N/A   Clear
7:00 AM 34 °F - 27 °F 66% 30.26 in 19 mi North 4.6 mph - -  
7:00 AM 33.8 °F 30.8 °F 28.4 °F 81% 30.15 in - North 3.5 mph - N/A   Clear
7:30 AM 35.6 °F 32.8 °F 28.4 °F 75% 30.18 in - North 3.5 mph - N/A   Clear
8:00 AM 33.8 °F - 28.4 °F 81% 30.18 in - North 2.3 mph - N/A   Clear
8:30 AM 33.8 °F 30.8 °F 28.4 °F 81% 30.18 in - North 3.5 mph - N/A   Clear
9:00 AM 37.4 °F 34.9 °F 30.2 °F 75% 30.18 in - NNW 3.5 mph - N/A   Clear
9:30 AM 41.0 °F - 28.4 °F 61% 30.18 in - Variable 2.3 mph - N/A   Clear
10:00 AM 44.6 °F - 28.4 °F 53% 30.21 in - NW 1.2 mph - N/A   Clear
10:30 AM 48.2 °F - 30.2 °F 50% 30.18 in - NW 1.2 mph - N/A   Clear
11:00 AM 50.0 °F - 30.2 °F 47% 30.18 in - WSW 3.5 mph 15.0 mph N/A   Clear
11:30 AM 53.6 °F - 32.0 °F 44% 30.18 in - SW 1.2 mph - N/A   Clear
12:00 PM 55.4 °F - 32.0 °F 41% 30.18 in - South 2.3 mph - N/A   Clear
12:30 PM 57.2 °F - 35.6 °F 44% 30.18 in - South 2.3 mph - N/A   Clear
1:00 PM 60 °F - 32 °F 23% 30.16 in 19 mi SE 3.5 mph - -  
1:00 PM 59.0 °F - 35.6 °F 42% 30.18 in - East 3.5 mph - N/A   Clear
1:30 PM 60.8 °F - 33.8 °F 36% 30.18 in - SSW 2.3 mph - N/A   Clear
2:00 PM 62.6 °F - 35.6 °F 37% 30.15 in - South 4.6 mph - N/A   Clear
2:30 PM 62.6 °F - 33.8 °F 34% 30.15 in - SSW 3.5 mph - N/A   Clear
3:00 PM 66.2 °F - 33.8 °F 30% 30.12 in - WSW 3.5 mph - N/A   Clear
3:30 PM 66.2 °F - 32.0 °F 28% 30.12 in - SW 5.8 mph - N/A   Clear
4:00 PM 68.0 °F - 35.6 °F 30% 30.12 in - SSW 3.5 mph - N/A   Clear
4:30 PM 66.2 °F - 32.0 °F 28% 30.09 in - South 3.5 mph - N/A   Clear
5:00 PM 68.0 °F - 33.8 °F 28% 30.09 in - WNW 2.3 mph - N/A   Clear
5:30 PM 68.0 °F - 32.0 °F 26% 30.09 in - South 1.2 mph - N/A   Clear
6:00 PM 66.2 °F - 30.2 °F 26% 30.12 in - Variable 2.3 mph - N/A   Clear
6:30 PM 66.2 °F - 32.0 °F 28% 30.12 in - South 3.5 mph - N/A   Clear
7:00 PM 62 °F - 30 °F 19% 30.09 in 19 mi South 2.3 mph - -  
7:00 PM 62.6 °F - 30.2 °F 30% 30.12 in - Variable 1.2 mph - N/A   Clear
7:30 PM 60.8 °F - 32.0 °F 34% 30.12 in - South 3.5 mph - N/A   Clear
8:00 PM 60.8 °F - 32.0 °F 34% 30.12 in - Variable 2.3 mph - N/A   Clear
8:30 PM 59.0 °F - 32.0 °F 36% 30.12 in - Variable 2.3 mph - N/A   Clear
9:00 PM 53.6 °F - 32.0 °F 44% 30.15 in - NNE 3.5 mph - N/A   Clear
9:30 PM 51.8 °F - 32.0 °F 47% 30.15 in - North 4.6 mph - N/A   Clear
10:00 PM 51.8 °F - 33.8 °F 50% 30.15 in - North 3.5 mph - N/A   Clear
10:30 PM 48.2 °F - 33.8 °F 58% 30.15 in - North 5.8 mph - N/A   Clear
11:00 PM 46.4 °F 44.3 °F 33.8 °F 62% 30.15 in - NNW 4.6 mph - N/A   Clear
11:30 PM 48.2 °F - 32.0 °F 54% 30.18 in - NNW 4.6 mph - N/A   Clear